| time (UTC) | temp F | wind direction | speed MPH | gust MPH | rain 1hr in | rain 24hr in | rain mn in | humidity % | barometer mb |
| 20260503205036 | 60 | 47 | 10.0 | 16.0 | 0.00 | 0.00 | 0.00 | 33 | 1012.9 |
| 20260503204506 | 61 | 66 | 6.0 | 12.0 | 0.00 | 0.00 | 0.00 | 32 | 1012.8 |
| 20260503204038 | 61 | 11 | 5.0 | 11.0 | 0.00 | 0.00 | 0.00 | 32 | 1012.9 |
| 20260503203512 | 61 | 337 | 4.0 | 9.0 | 0.00 | 0.00 | 0.00 | 36 | 1013.0 |
| 20260503203053 | 61 | 28 | 4.0 | 13.0 | 0.00 | 0.00 | 0.00 | 34 | 1013.1 |
| 20260503202510 | 60 | 90 | 6.0 | 16.0 | 0.00 | 0.00 | 0.00 | 35 | 1013.0 |
| 20260503202044 | 60 | 90 | 10.0 | 16.0 | 0.00 | 0.00 | 0.00 | 32 | 1013.0 |
| 20260503201515 | 60 | 50 | 8.0 | 16.0 | 0.00 | 0.00 | 0.00 | 31 | 1013.0 |
| 20260503201028 | 60 | 50 | 5.0 | 15.0 | 0.00 | 0.00 | 0.00 | 37 | 1013.1 |
| 20260503200505 | 59 | 62 | 6.0 | 14.0 | 0.00 | 0.00 | 0.00 | 33 | 1013.2 |
| 20260503200038 | 59 | 70 | 5.0 | 19.0 | 0.00 | 0.00 | 0.00 | 35 | 1013.2 |
| 20260503195506 | 59 | 55 | 12.0 | 19.0 | 0.00 | 0.00 | 0.00 | 35 | 1013.4 |
| 20260503195037 | 59 | 51 | 8.0 | 16.0 | 0.00 | 0.00 | 0.00 | 38 | 1013.5 |
| 20260503194508 | 59 | 18 | 6.0 | 16.0 | 0.00 | 0.00 | 0.00 | 37 | 1013.7 |
| 20260503194023 | 59 | 55 | 10.0 | 18.0 | 0.00 | 0.00 | 0.00 | 31 | 1013.7 |
| 20260503193552 | 59 | 17 | 9.0 | 19.0 | 0.00 | 0.00 | 0.00 | 35 | 1013.8 |
| 20260503193032 | 59 | 25 | 10.0 | 19.0 | 0.00 | 0.00 | 0.00 | 36 | 1013.9 |
| 20260503192557 | 58 | 36 | 9.0 | 15.0 | 0.00 | 0.00 | 0.00 | 37 | 1014.0 |
| 20260503192031 | 58 | 43 | 6.0 | 15.0 | 0.00 | 0.00 | 0.00 | 33 | 1014.1 |
| 20260503191504 | 58 | 86 | 9.0 | 16.0 | 0.00 | 0.00 | 0.00 | 33 | 1014.3 |
| 20260503191039 | 58 | 100 | 10.0 | 24.0 | 0.00 | 0.00 | 0.00 | 36 | 1014.5 |
| 20260503190508 | 58 | 22 | 10.0 | 24.0 | 0.00 | 0.00 | 0.00 | 35 | 1014.4 |
| 20260503190039 | 58 | 11 | 8.0 | 16.0 | 0.00 | 0.00 | 0.00 | 39 | 1014.4 |
| 20260503185511 | 58 | 88 | 9.0 | 16.0 | 0.00 | 0.00 | 0.00 | 37 | 1014.5 |
| 20260503185049 | 58 | 75 | 8.0 | 17.0 | 0.00 | 0.00 | 0.00 | 36 | 1014.5 |
| 20260503184519 | 57 | 36 | 12.0 | 21.0 | 0.00 | 0.00 | 0.00 | 40 | 1014.5 |
| 20260503184056 | 57 | 41 | 10.0 | 21.0 | 0.00 | 0.00 | 0.00 | 37 | 1014.6 |
| 20260503183529 | 57 | 52 | 7.0 | 14.0 | 0.00 | 0.00 | 0.00 | 40 | 1014.6 |
| 20260503183057 | 57 | 58 | 5.0 | 15.0 | 0.00 | 0.00 | 0.00 | 44 | 1014.7 |
| 20260503182525 | 57 | 36 | 8.0 | 14.0 | 0.00 | 0.00 | 0.00 | 37 | 1014.7 |
| 20260503182059 | 57 | 52 | 5.0 | 17.0 | 0.00 | 0.00 | 0.00 | 38 | 1014.6 |
| 20260503182001 | 57 | 354 | 6.0 | 17.0 | 0.00 | 0.00 | 0.00 | 41 | 1014.6 |
| 20260503181533 | 56 | 352 | 8.0 | 17.0 | 0.00 | 0.00 | 0.00 | 42 | 1014.7 |
| 20260503181005 | 56 | 90 | 6.0 | 14.0 | 0.00 | 0.00 | 0.00 | 44 | 1014.8 |
| 20260503180541 | 55 | 43 | 8.0 | 17.0 | 0.00 | 0.00 | 0.00 | 38 | 1014.7 |
| 20260503180016 | 56 | 91 | 11.0 | 17.0 | 0.00 | 0.00 | 0.00 | 36 | 1014.7 |
| 20260503175529 | 56 | 48 | 9.0 | 21.0 | 0.00 | 0.00 | 0.00 | 45 | 1014.9 |
| 20260503175003 | 56 | 52 | 12.0 | 21.0 | 0.00 | 0.00 | 0.00 | 42 | 1014.9 |
| 20260503174538 | 55 | 57 | 6.0 | 14.0 | 0.00 | 0.00 | 0.00 | 44 | 1014.9 |
| 20260503174009 | 55 | 26 | 6.0 | 19.0 | 0.00 | 0.00 | 0.00 | 40 | 1014.9 |
| 20260503173539 | 55 | 61 | 12.0 | 21.0 | 0.00 | 0.00 | 0.00 | 41 | 1014.9 |
| 20260503173104 | 55 | 27 | 13.0 | 21.0 | 0.00 | 0.00 | 0.00 | 40 | 1015.0 |
| 20260503172525 | 55 | 67 | 11.0 | 19.0 | 0.00 | 0.00 | 0.00 | 43 | 1015.0 |
| 20260503172059 | 55 | 43 | 12.0 | 19.0 | 0.00 | 0.00 | 0.00 | 43 | 1015.0 |
| 20260503172003 | 55 | 45 | 9.0 | 16.0 | 0.00 | 0.00 | 0.00 | 47 | 1015.0 |
| 20260503171544 | 54 | 34 | 11.0 | 15.0 | 0.00 | 0.00 | 0.00 | 44 | 1015.0 |
| 20260503171003 | 54 | 56 | 8.0 | 12.0 | 0.00 | 0.00 | 0.00 | 43 | 1015.0 |
| 20260503170531 | 53 | 36 | 7.0 | 17.0 | 0.00 | 0.00 | 0.00 | 44 | 1015.1 |
| 20260503150554 | 49 | 27 | 11.0 | 18.0 | 0.00 | 0.00 | 0.00 | 49 | 1016.1 |
| 20260503131034 | 45 | 83 | 7.0 | 15.0 | 0.00 | 0.00 | 0.00 | 61 | 1016.7 |
| 20260503130506 | 45 | 38 | 10.0 | 16.0 | 0.00 | 0.00 | 0.00 | 62 | 1016.7 |
| 20260503110515 | 40 | 46 | 2.0 | 7.0 | 0.00 | 0.00 | 0.00 | 72 | 1015.4 |
| 20260503110106 | 40 | 71 | 2.0 | 7.0 | 0.00 | 0.00 | 0.00 | 72 | 1015.5 |
| 20260503081550 | 42 | 42 | 5.0 | 9.0 | 0.00 | 0.00 | 0.00 | 71 | 1014.1 |
| 20260503081029 | 41 | 9 | 3.0 | 9.0 | 0.00 | 0.00 | 0.00 | 72 | 1014.0 |
| 20260503080555 | 41 | 39 | 4.0 | 9.0 | 0.00 | 0.00 | 0.00 | 72 | 1013.9 |
| 20260503072545 | 40 | 52 | 3.0 | 7.0 | 0.00 | 0.00 | 0.00 | 73 | 1013.6 |
| 20260503072015 | 40 | 60 | 3.0 | 7.0 | 0.00 | 0.00 | 0.00 | 72 | 1013.5 |
| 20260503071604 | 41 | 51 | 2.0 | 6.0 | 0.00 | 0.00 | 0.00 | 72 | 1013.4 |
| 20260503071021 | 41 | 57 | 2.0 | 6.0 | 0.00 | 0.00 | 0.00 | 71 | 1013.4 |
| 20260503070554 | 41 | 65 | 2.0 | 7.0 | 0.00 | 0.00 | 0.00 | 71 | 1013.4 |
| 20260503055015 | 41 | 65 | 7.0 | 10.0 | 0.00 | 0.00 | 0.00 | 70 | 1013.0 |
| 20260503054558 | 41 | 64 | 3.0 | 8.0 | 0.00 | 0.00 | 0.00 | 71 | 1013.1 |
| 20260503054019 | 41 | 36 | 3.0 | 8.0 | 0.00 | 0.00 | 0.00 | 71 | 1013.0 |
| 20260503053553 | 41 | 40 | 2.0 | 5.0 | 0.00 | 0.00 | 0.00 | 72 | 1013.0 |
| 20260503053021 | 40 | 48 | 2.0 | 4.0 | 0.00 | 0.00 | 0.00 | 73 | 1013.1 |
| 20260503052536 | 40 | 57 | 1.0 | 4.0 | 0.00 | 0.00 | 0.00 | 75 | 1013.0 |
| 20260503052010 | 40 | 50 | 1.0 | 3.0 | 0.00 | 0.00 | 0.00 | 74 | 1013.0 |
| 20260503051539 | 41 | 42 | 0.0 | 0.0 | 0.00 | 0.00 | 0.00 | 72 | 1013.1 |
| 20260503051006 | 41 | 356 | 0.0 | 1.0 | 0.00 | 0.00 | 0.00 | 71 | 1013.1 |
| 20260503050539 | 42 | 356 | 0.0 | 1.0 | 0.00 | 0.00 | 0.00 | 71 | 1013.2 |
| 20260503050017 | 42 | 356 | 0.0 | 1.0 | 0.00 | 0.00 | 0.00 | 69 | 1013.2 |
| 20260503045524 | 42 | 356 | 0.0 | 2.0 | 0.00 | 0.00 | 0.00 | 69 | 1013.3 |
| 20260503045056 | 43 | 356 | 0.0 | 2.0 | 0.00 | 0.00 | 0.00 | 69 | 1013.3 |
| 20260503044537 | 43 | 358 | 1.0 | 2.0 | 0.00 | 0.00 | 0.00 | 66 | 1013.3 |
| 20260503044004 | 43 | 58 | 0.0 | 3.0 | 0.00 | 0.00 | 0.00 | 66 | 1013.4 |
| 20260503043541 | 43 | 65 | 0.0 | 3.0 | 0.00 | 0.00 | 0.00 | 65 | 1013.3 |
| 20260503043104 | 44 | 38 | 1.0 | 3.0 | 0.00 | 0.00 | 0.00 | 65 | 1013.3 |
| 20260503043002 | 44 | 38 | 1.0 | 3.0 | 0.00 | 0.00 | 0.00 | 65 | 1013.3 |
| 20260503042539 | 44 | 69 | 1.0 | 4.0 | 0.00 | 0.00 | 0.00 | 65 | 1013.2 |
| 20260503042009 | 44 | 77 | 0.0 | 4.0 | 0.00 | 0.00 | 0.00 | 64 | 1013.1 |
| 20260503041543 | 44 | 304 | 0.0 | 2.0 | 0.00 | 0.00 | 0.00 | 64 | 1013.2 |
| 20260503041011 | 45 | 304 | 0.0 | 2.0 | 0.00 | 0.00 | 0.00 | 63 | 1013.1 |
| 20260503040547 | 45 | 302 | 0.0 | 3.0 | 0.00 | 0.00 | 0.00 | 63 | 1013.1 |
| 20260503040016 | 45 | 123 | 0.0 | 7.0 | 0.00 | 0.00 | 0.00 | 62 | 1013.1 |
| 20260503035544 | 46 | 177 | 1.0 | 7.0 | 0.00 | 0.00 | 0.00 | 62 | 1013.0 |
| 20260503035019 | 46 | 115 | 4.0 | 6.0 | 0.00 | 0.00 | 0.00 | 61 | 1013.0 |
| 20260503034553 | 46 | 74 | 2.0 | 6.0 | 0.00 | 0.00 | 0.00 | 62 | 1013.0 |
| 20260503034013 | 46 | 90 | 2.0 | 9.0 | 0.00 | 0.00 | 0.00 | 61 | 1013.0 |
| 20260503033545 | 46 | 64 | 4.0 | 9.0 | 0.00 | 0.00 | 0.00 | 61 | 1013.1 |
| 20260503033018 | 46 | 23 | 2.0 | 8.0 | 0.00 | 0.00 | 0.00 | 61 | 1013.0 |
| 20260503032552 | 46 | 71 | 4.0 | 8.0 | 0.00 | 0.00 | 0.00 | 60 | 1013.0 |
| 20260503032028 | 47 | 67 | 3.0 | 9.0 | 0.00 | 0.00 | 0.00 | 60 | 1013.0 |
| 20260503031604 | 47 | 87 | 2.0 | 10.0 | 0.00 | 0.00 | 0.00 | 60 | 1013.1 |
| 20260503031026 | 47 | 74 | 5.0 | 10.0 | 0.00 | 0.00 | 0.00 | 59 | 1013.1 |
| 20260503030600 | 47 | 92 | 3.0 | 9.0 | 0.00 | 0.00 | 0.00 | 59 | 1013.2 |
| 20260503030502 | 47 | 128 | 3.0 | 10.0 | 0.00 | 0.00 | 0.00 | 59 | 1013.1 |
| 20260503030046 | 47 | 88 | 6.0 | 13.0 | 0.00 | 0.00 | 0.00 | 58 | 1013.1 |
| 20260503025508 | 48 | 100 | 8.0 | 15.0 | 0.00 | 0.00 | 0.00 | 58 | 1013.1 |
| 20260503025042 | 48 | 68 | 7.0 | 15.0 | 0.00 | 0.00 | 0.00 | 58 | 1013.1 |
| 20260503024558 | 48 | 77 | 8.0 | 15.0 | 0.00 | 0.00 | 0.00 | 58 | 1013.1 |
| 20260503024029 | 48 | 85 | 9.0 | 15.0 | 0.00 | 0.00 | 0.00 | 57 | 1013.1 |
| 20260503023559 | 49 | 77 | 8.0 | 14.0 | 0.00 | 0.00 | 0.00 | 57 | 1013.1 |
| 20260503023033 | 49 | 115 | 6.0 | 12.0 | 0.00 | 0.00 | 0.00 | 56 | 1013.1 |
| 20260503022600 | 49 | 77 | 6.0 | 12.0 | 0.00 | 0.00 | 0.00 | 56 | 1013.0 |
| 20260503022502 | 49 | 57 | 7.0 | 12.0 | 0.00 | 0.00 | 0.00 | 56 | 1013.0 |
| 20260503022037 | 49 | 104 | 6.0 | 11.0 | 0.00 | 0.00 | 0.00 | 56 | 1013.0 |
| 20260503021518 | 49 | 57 | 6.0 | 11.0 | 0.00 | 0.00 | 0.00 | 56 | 1013.1 |
| 20260503021044 | 49 | 128 | 4.0 | 11.0 | 0.00 | 0.00 | 0.00 | 56 | 1013.1 |
| 20260503020518 | 50 | 59 | 5.0 | 12.0 | 0.00 | 0.00 | 0.00 | 55 | 1013.0 |
| 20260503020050 | 50 | 77 | 6.0 | 12.0 | 0.00 | 0.00 | 0.00 | 55 | 1012.9 |
| 20260503015518 | 50 | 173 | 6.0 | 13.0 | 0.00 | 0.00 | 0.00 | 56 | 1012.9 |
| 20260503015033 | 50 | 65 | 6.0 | 13.0 | 0.00 | 0.00 | 0.00 | 55 | 1012.9 |
| 20260503014504 | 50 | 124 | 8.0 | 12.0 | 0.00 | 0.00 | 0.00 | 54 | 1012.8 |
| 20260503014040 | 50 | 92 | 5.0 | 13.0 | 0.00 | 0.00 | 0.00 | 55 | 1012.8 |
| 20260503013512 | 51 | 67 | 7.0 | 13.0 | 0.00 | 0.00 | 0.00 | 55 | 1012.8 |
| 20260503013046 | 51 | 98 | 5.0 | 14.0 | 0.00 | 0.00 | 0.00 | 54 | 1012.7 |
| 20260503012601 | 51 | 119 | 10.0 | 14.0 | 0.00 | 0.00 | 0.00 | 53 | 1012.6 |
| 20260503012504 | 51 | 77 | 10.0 | 14.0 | 0.00 | 0.00 | 0.00 | 53 | 1012.6 |
| 20260503012036 | 51 | 92 | 6.0 | 12.0 | 0.00 | 0.00 | 0.00 | 54 | 1012.4 |
| 20260503011506 | 51 | 86 | 5.0 | 12.0 | 0.00 | 0.00 | 0.00 | 54 | 1012.3 |
| 20260503011040 | 51 | 98 | 6.0 | 9.0 | 0.00 | 0.00 | 0.00 | 54 | 1012.2 |
| 20260503010552 | 51 | 58 | 2.0 | 9.0 | 0.00 | 0.00 | 0.00 | 54 | 1012.2 |
| 20260503010026 | 51 | 98 | 2.0 | 8.0 | 0.00 | 0.00 | 0.00 | 54 | 1012.1 |
| 20260503005555 | 51 | 71 | 3.0 | 8.0 | 0.00 | 0.00 | 0.00 | 54 | 1012.1 |
| 20260503005023 | 51 | 98 | 2.0 | 6.0 | 0.00 | 0.00 | 0.00 | 54 | 1011.9 |
| 20260503004556 | 51 | 89 | 3.0 | 7.0 | 0.00 | 0.00 | 0.00 | 53 | 1011.9 |
| 20260503004032 | 51 | 96 | 4.0 | 7.0 | 0.00 | 0.00 | 0.00 | 54 | 1011.8 |
| 20260503003545 | 51 | 86 | 2.0 | 9.0 | 0.00 | 0.00 | 0.00 | 54 | 1011.8 |
| 20260503003014 | 51 | 102 | 2.0 | 5.0 | 0.00 | 0.00 | 0.00 | 54 | 1011.6 |
| 20260503002552 | 51 | 115 | 2.0 | 5.0 | 0.00 | 0.00 | 0.00 | 53 | 1011.5 |
| 20260503002023 | 51 | 101 | 2.0 | 8.0 | 0.00 | 0.00 | 0.00 | 54 | 1011.4 |
| 20260503001606 | 52 | 98 | 1.0 | 8.0 | 0.00 | 0.00 | 0.00 | 53 | 1011.3 |
| 20260503001026 | 52 | 88 | 2.0 | 6.0 | 0.00 | 0.00 | 0.00 | 53 | 1011.2 |
| 20260503000604 | 52 | 111 | 2.0 | 6.0 | 0.00 | 0.00 | 0.00 | 52 | 1011.2 |
| 20260503000503 | 52 | 88 | 3.0 | 6.0 | 0.00 | 0.00 | 0.00 | 52 | 1011.2 |
| 20260503000036 | 52 | 77 | 2.0 | 11.0 | 0.00 | 0.00 | 0.00 | 52 | 1011.2 |
| 20260502235552 | 52 | 86 | 4.0 | 11.0 | 0.00 | 0.00 | 0.00 | 51 | 1011.2 |
| 20260502235022 | 52 | 82 | 3.0 | 8.0 | 0.00 | 0.00 | 0.00 | 51 | 1011.0 |
| 20260502234555 | 52 | 96 | 4.0 | 8.0 | 0.00 | 0.00 | 0.00 | 50 | 1011.1 |
| 20260502234024 | 52 | 102 | 3.0 | 8.0 | 0.00 | 0.00 | 0.00 | 50 | 1011.0 |
| 20260502233555 | 53 | 86 | 2.0 | 9.0 | 0.00 | 0.00 | 0.00 | 51 | 1010.9 |
| 20260502233026 | 53 | 106 | 4.0 | 11.0 | 0.00 | 0.00 | 0.00 | 51 | 1010.9 |
| 20260502232604 | 53 | 90 | 5.0 | 11.0 | 0.00 | 0.00 | 0.00 | 51 | 1010.9 |
| 20260502232036 | 53 | 123 | 4.0 | 9.0 | 0.00 | 0.00 | 0.00 | 51 | 1010.9 |
| 20260502231508 | 53 | 95 | 4.0 | 10.0 | 0.00 | 0.00 | 0.00 | 50 | 1010.9 |
| 20260502231042 | 53 | 121 | 3.0 | 9.0 | 0.00 | 0.00 | 0.00 | 50 | 1010.7 |
| 20260502230510 | 54 | 75 | 4.0 | 11.0 | 0.00 | 0.00 | 0.00 | 51 | 1010.7 |
| 20260502230029 | 54 | 161 | 5.0 | 11.0 | 0.00 | 0.00 | 0.00 | 50 | 1010.6 |
| 20260502225555 | 54 | 111 | 6.0 | 11.0 | 0.00 | 0.00 | 0.00 | 48 | 1010.6 |
| 20260502225035 | 54 | 138 | 4.0 | 12.0 | 0.00 | 0.00 | 0.00 | 51 | 1010.5 |
| 20260502224507 | 55 | 102 | 8.0 | 10.0 | 0.00 | 0.00 | 0.00 | 48 | 1010.5 |
| 20260502224037 | 55 | 101 | 4.0 | 11.0 | 0.00 | 0.00 | 0.00 | 47 | 1010.5 |
| 20260502223552 | 55 | 90 | 5.0 | 14.0 | 0.00 | 0.00 | 0.00 | 48 | 1010.5 |
| 20260502223024 | 55 | 86 | 7.0 | 14.0 | 0.00 | 0.00 | 0.00 | 45 | 1010.5 |
| 20260502222557 | 56 | 95 | 5.0 | 12.0 | 0.00 | 0.00 | 0.00 | 46 | 1010.5 |
| 20260502222034 | 56 | 167 | 6.0 | 13.0 | 0.00 | 0.00 | 0.00 | 48 | 1010.6 |
| 20260502221503 | 55 | 143 | 5.0 | 11.0 | 0.00 | 0.00 | 0.00 | 46 | 1010.5 |
| 20260502221019 | 55 | 128 | 8.0 | 11.0 | 0.00 | 0.00 | 0.00 | 47 | 1010.6 |
| 20260502220552 | 55 | 89 | 5.0 | 12.0 | 0.00 | 0.00 | 0.00 | 46 | 1010.6 |
| 20260502220026 | 55 | 133 | 7.0 | 12.0 | 0.00 | 0.00 | 0.00 | 47 | 1010.6 |
| 20260502215558 | 55 | 105 | 7.0 | 13.0 | 0.00 | 0.00 | 0.00 | 47 | 1010.6 |
| 20260502215032 | 55 | 77 | 8.0 | 13.0 | 0.00 | 0.00 | 0.00 | 47 | 1010.6 |
| 20260502214559 | 55 | 42 | 7.0 | 12.0 | 0.00 | 0.00 | 0.00 | 49 | 1010.6 |
| 20260502214501 | 55 | 150 | 8.0 | 12.0 | 0.00 | 0.00 | 0.00 | 47 | 1010.5 |
| 20260502214029 | 56 | 111 | 6.0 | 11.0 | 0.00 | 0.00 | 0.00 | 47 | 1010.6 |
| 20260502213557 | 56 | 91 | 4.0 | 10.0 | 0.00 | 0.00 | 0.00 | 52 | 1010.5 |
| 20260502213035 | 55 | 73 | 5.0 | 10.0 | 0.00 | 0.00 | 0.00 | 48 | 1010.5 |
| 20260502212511 | 55 | 36 | 7.0 | 12.0 | 0.00 | 0.00 | 0.00 | 46 | 1010.5 |
| 20260502212022 | 55 | 143 | 7.0 | 12.0 | 0.00 | 0.00 | 0.00 | 47 | 1010.4 |
| 20260502211553 | 55 | 92 | 7.0 | 12.0 | 0.00 | 0.00 | 0.00 | 47 | 1010.5 |
| 20260502211032 | 55 | 79 | 6.0 | 14.0 | 0.00 | 0.00 | 0.00 | 46 | 1010.5 |
| 20260502210503 | 55 | 34 | 6.0 | 13.0 | 0.00 | 0.00 | 0.00 | 46 | 1010.4 |
| 20260502210019 | 55 | 73 | 8.0 | 11.0 | 0.00 | 0.00 | 0.00 | 48 | 1010.4 |
| 20260502205551 | 55 | 148 | 4.0 | 12.0 | 0.00 | 0.00 | 0.00 | 45 | 1010.4 |